KAZSAT-3

Last updated on Aug. 5, 2020, 5:33 a.m. UTC

1 39728U 14023B   20217.87128324  .00000044  00000-0  00000-0 0  9994
2 39728   0.0492 233.6781 0001616 315.8287 136.5167  1.00272013 20977
UTC
Height (km)
Latitude
Longitude
Inclination
Orbital Period
UTC large
Height (km)
Speed (km/s)
/
Latitude / Longitude
Inclination (degrees)
Orbital Period (minutes)
Azimuth
Elevation
Range (km)
Doppler Factor
iOS Compass Heading
iOS Angle

Next 30 passes for location: Hong Kong

Rise time Rise Azimuth (degrees) Set time Set Azimuth (degrees) Duration Max altitude (degrees)

No matching passes for this satellites